Time,TemperatureF,DewpointF,PressureIn,WindDirection,WindDirectionDegrees,WindSpeedMPH,WindSpeedGustMPH,Humidity,HourlyPrecipIn,Conditions,Clouds,dailyrainin,SoftwareType,DateUTC
2013-03-10 00:09:00,32.0,28.0,30.15,WNW,292,0.0,0.0,85,0.00,,---,0.00,VWS V14.01,2013-03-10 07:09:00,
2013-03-10 00:19:00,31.0,27.0,30.16,WNW,292,0.0,0.0,85,0.00,,---,0.00,VWS V14.01,2013-03-10 07:19:00,
2013-03-10 00:29:00,31.0,27.0,30.16,NW,315,0.0,0.0,85,0.00,,---,0.00,VWS V14.01,2013-03-10 07:29:00,
2013-03-10 00:39:00,31.0,27.3,30.16,WNW,292,0.0,0.0,86,0.00,,---,0.00,VWS V14.01,2013-03-10 07:39:00,
2013-03-10 00:49:00,30.0,26.3,30.16,WNW,292,0.0,0.0,86,0.00,,---,0.00,VWS V14.01,2013-03-10 07:49:00,
2013-03-10 00:59:00,30.0,26.6,30.16,NNW,337,0.0,0.0,87,0.00,,---,0.00,VWS V14.01,2013-03-10 07:59:00,
2013-03-10 01:09:00,29.0,25.6,30.17,NW,315,0.0,0.0,87,0.00,,---,0.00,VWS V14.01,2013-03-10 08:09:00,
2013-03-10 01:10:00,29.0,26.2,30.17,North,360,0.0,0.0,89,0.00,,---,0.00,VWS V14.01,2013-03-10 08:10:00,
2013-03-10 01:19:00,29.0,25.6,30.17,NNW,337,0.0,0.0,87,0.00,,---,0.00,VWS V14.01,2013-03-10 08:19:00,
2013-03-10 01:20:00,29.0,26.2,30.16,North,360,0.0,0.0,89,0.00,,---,0.00,VWS V14.01,2013-03-10 08:20:00,
2013-03-10 01:29:00,29.0,25.6,30.17,NNW,337,0.0,0.0,87,0.00,,---,0.00,VWS V14.01,2013-03-10 08:29:00,
2013-03-10 01:30:00,29.0,26.2,30.16,North,360,0.0,0.0,89,0.00,,---,0.00,VWS V14.01,2013-03-10 08:30:00,
2013-03-10 01:39:00,29.0,25.6,30.18,NNW,337,0.0,0.0,87,0.00,,---,0.00,VWS V14.01,2013-03-10 08:39:00,
2013-03-10 01:40:00,29.0,25.9,30.17,North,360,0.0,0.0,88,0.00,,---,0.00,VWS V14.01,2013-03-10 08:40:00,
2013-03-10 01:49:00,29.0,25.9,30.18,North,360,0.0,0.0,88,0.00,,---,0.00,VWS V14.01,2013-03-10 08:49:00,
2013-03-10 01:50:00,29.0,25.9,30.17,North,360,0.0,0.0,88,0.00,,---,0.00,VWS V14.01,2013-03-10 08:50:00,
2013-03-10 01:59:00,28.0,24.9,30.17,North,360,0.0,0.0,88,0.00,,---,0.00,VWS V14.01,2013-03-10 08:59:00,
2013-03-10 03:00:00,29.0,25.9,30.17,North,360,0.0,0.0,88,0.00,,---,0.00,VWS V14.01,2013-03-10 09:00:00,
2013-03-10 03:10:00,28.0,24.9,30.18,North,360,0.0,0.0,88,0.00,,---,0.00,VWS V14.01,2013-03-10 09:10:00,
2013-03-10 03:20:00,28.0,25.2,30.18,North,360,0.0,0.0,89,0.00,,---,0.00,VWS V14.01,2013-03-10 09:20:00,
2013-03-10 03:30:00,28.0,25.5,30.18,NW,315,0.0,0.0,90,0.00,,---,0.00,VWS V14.01,2013-03-10 09:30:00,
2013-03-10 03:40:00,27.0,24.5,30.18,WNW,292,0.0,0.0,90,0.00,,---,0.00,VWS V14.01,2013-03-10 09:40:00,
2013-03-10 03:50:00,27.0,24.5,30.18,WNW,292,0.0,0.0,90,0.00,,---,0.00,VWS V14.01,2013-03-10 09:50:00,
2013-03-10 04:00:00,26.0,24.0,30.20,WNW,292,0.0,0.0,92,0.00,,---,0.00,VWS V14.01,2013-03-10 10:00:00,
2013-03-10 04:10:00,26.0,24.3,30.19,West,270,0.0,0.0,93,0.00,,---,0.00,VWS V14.01,2013-03-10 10:10:00,
2013-03-10 04:20:00,26.0,24.3,30.20,West,270,0.0,0.0,93,0.00,,---,0.00,VWS V14.01,2013-03-10 10:20:00,
2013-03-10 04:30:00,25.0,23.3,30.20,West,270,0.0,0.0,93,0.00,,---,0.00,VWS V14.01,2013-03-10 10:30:00,
2013-03-10 04:40:00,25.0,23.3,30.20,West,270,0.0,0.0,93,0.00,,---,0.00,VWS V14.01,2013-03-10 10:40:00,
2013-03-10 04:50:00,25.0,23.5,30.20,West,270,0.0,0.0,94,0.00,,---,0.00,VWS V14.01,2013-03-10 10:50:00,
2013-03-10 05:00:00,26.0,24.5,30.21,West,270,0.0,0.0,94,0.00,,---,0.00,VWS V14.01,2013-03-10 11:00:00,
2013-03-10 05:10:00,26.0,24.3,30.21,West,270,0.0,0.0,93,0.00,,---,0.00,VWS V14.01,2013-03-10 11:10:00,
2013-03-10 05:20:00,26.0,24.3,30.22,West,270,0.0,0.0,93,0.00,,---,0.00,VWS V14.01,2013-03-10 11:20:00,
2013-03-10 05:30:00,27.0,25.2,30.21,West,270,0.0,0.0,93,0.00,,---,0.00,VWS V14.01,2013-03-10 11:30:00,
2013-03-10 05:40:00,27.0,25.2,30.22,West,270,0.0,0.0,93,0.00,,---,0.00,VWS V14.01,2013-03-10 11:40:00,
2013-03-10 05:50:00,27.0,25.2,30.22,North,360,0.0,0.0,93,0.00,,---,0.00,VWS V14.01,2013-03-10 11:50:00,
2013-03-10 06:00:00,27.0,25.2,30.22,West,270,0.0,0.0,93,0.00,,---,0.00,VWS V14.01,2013-03-10 12:00:00,
2013-03-10 06:10:00,28.0,26.5,30.22,West,270,0.0,0.0,94,0.00,,---,0.00,VWS V14.01,2013-03-10 12:10:00,
2013-03-10 06:20:00,28.0,26.5,30.22,ENE,67,0.0,0.0,94,0.00,,---,0.00,VWS V14.01,2013-03-10 12:20:00,
2013-03-10 06:30:00,28.0,26.2,30.23,NE,45,0.0,0.0,93,0.00,,---,0.00,VWS V14.01,2013-03-10 12:30:00,
2013-03-10 06:40:00,28.0,26.2,30.24,NNE,22,0.0,0.0,93,0.00,,---,0.00,VWS V14.01,2013-03-10 12:40:00,
2013-03-10 06:50:00,29.0,27.5,30.23,NNE,22,0.0,0.0,94,0.00,,---,0.00,VWS V14.01,2013-03-10 12:50:00,
2013-03-10 07:00:00,29.0,27.5,30.23,NW,315,0.0,0.0,94,0.00,,---,0.00,VWS V14.01,2013-03-10 13:00:00,
2013-03-10 07:10:00,29.0,27.5,30.24,NW,315,0.0,0.0,94,0.00,,---,0.00,VWS V14.01,2013-03-10 13:10:00,
2013-03-10 07:20:00,29.0,27.5,30.24,NW,315,0.0,0.0,94,0.00,,---,0.00,VWS V14.01,2013-03-10 13:20:00,
2013-03-10 07:30:00,29.0,27.5,30.24,NW,315,0.0,0.0,94,0.00,,---,0.00,VWS V14.01,2013-03-10 13:30:00,
2013-03-10 07:40:00,30.0,28.5,30.25,NW,315,0.0,0.0,94,0.00,,---,0.00,VWS V14.01,2013-03-10 13:40:00,
2013-03-10 07:50:00,30.0,28.5,30.24,East,90,0.0,0.0,94,0.00,,---,0.00,VWS V14.01,2013-03-10 13:50:00,
2013-03-10 08:00:00,30.0,28.2,30.25,SSW,202,0.0,0.0,93,0.00,,---,0.00,VWS V14.01,2013-03-10 14:00:00,
2013-03-10 08:10:00,31.0,29.0,30.25,ENE,67,0.0,0.0,92,0.00,,---,0.00,VWS V14.01,2013-03-10 14:10:00,
2013-03-10 08:20:00,32.0,29.9,30.25,NNE,22,0.0,0.0,92,0.00,,---,0.00,VWS V14.01,2013-03-10 14:20:00,
2013-03-10 08:30:00,32.0,29.7,30.25,NE,45,0.0,0.0,91,0.00,,---,0.00,VWS V14.01,2013-03-10 14:30:00,
2013-03-10 08:40:00,33.0,30.1,30.24,North,360,0.0,0.0,89,0.00,,---,0.00,VWS V14.01,2013-03-10 14:40:00,
2013-03-10 08:50:00,33.0,29.8,30.24,ENE,67,0.0,0.0,88,0.00,,---,0.00,VWS V14.01,2013-03-10 14:50:00,
2013-03-10 09:00:00,33.0,28.7,30.24,NE,45,0.0,0.0,84,0.00,,---,0.00,VWS V14.01,2013-03-10 15:00:00,
2013-03-10 09:10:00,34.0,29.1,30.24,ENE,67,0.0,0.0,82,0.00,,---,0.00,VWS V14.01,2013-03-10 15:10:00,
2013-03-10 09:20:00,35.0,29.2,30.24,WNW,292,0.0,0.0,79,0.00,,---,0.00,VWS V14.01,2013-03-10 15:20:00,
2013-03-10 09:30:00,35.0,28.2,30.24,NE,45,0.0,0.0,76,0.00,,---,0.00,VWS V14.01,2013-03-10 15:30:00,
2013-03-10 09:40:00,36.0,28.5,30.23,ENE,67,0.0,0.0,74,0.00,,---,0.00,VWS V14.01,2013-03-10 15:40:00,
2013-03-10 09:50:00,39.0,28.6,30.22,NNW,337,0.0,4.0,66,0.00,,---,0.00,VWS V14.01,2013-03-10 15:50:00,
2013-03-10 10:00:00,41.0,28.2,30.22,North,360,2.0,8.0,60,0.00,,---,0.00,VWS V14.01,2013-03-10 16:00:00,
2013-03-10 10:20:00,43.0,27.0,30.20,ENE,67,7.0,11.0,53,0.00,,---,0.00,VWS V14.01,2013-03-10 16:20:00,
2013-03-10 10:30:00,42.0,26.6,30.19,North,360,0.0,13.0,54,0.00,,---,0.00,VWS V14.01,2013-03-10 16:30:00,
2013-03-10 10:40:00,43.0,26.6,30.19,NE,45,9.0,13.0,52,0.00,,---,0.00,VWS V14.01,2013-03-10 16:40:00,
2013-03-10 11:00:00,41.0,25.6,30.20,NE,45,0.0,8.0,54,0.00,,---,0.00,VWS V14.01,2013-03-10 17:00:00,
2013-03-10 11:09:00,42.0,27.5,30.21,NE,45,0.0,11.0,56,0.00,,---,0.00,VWS V14.01,2013-03-10 17:09:00,
2013-03-10 11:10:00,40.0,25.6,30.20,ESE,112,6.0,12.0,56,0.00,,---,0.00,VWS V14.01,2013-03-10 17:10:00,
2013-03-10 11:20:00,40.0,25.6,30.21,ENE,67,2.0,12.0,56,0.00,,---,0.00,VWS V14.01,2013-03-10 17:20:00,
2013-03-10 11:30:00,39.0,25.1,30.21,East,90,7.0,13.0,57,0.00,,---,0.00,VWS V14.01,2013-03-10 17:30:00,
2013-03-10 11:40:00,39.0,25.1,30.21,East,90,10.0,13.0,57,0.00,,---,0.00,VWS V14.01,2013-03-10 17:40:00,
2013-03-10 11:49:00,42.0,25.7,30.20,NNE,22,0.0,11.0,52,0.00,,---,0.00,VWS V14.01,2013-03-10 17:49:00,
2013-03-10 12:00:00,40.0,24.7,30.21,ENE,67,5.0,13.0,54,0.00,,---,0.00,VWS V14.01,2013-03-10 18:00:00,
2013-03-10 12:10:00,40.0,24.3,30.20,ENE,67,9.0,10.0,53,0.00,,---,0.00,VWS V14.01,2013-03-10 18:10:00,
2013-03-10 12:20:00,42.0,25.7,30.20,SE,135,0.0,9.0,52,0.00,,---,0.00,VWS V14.01,2013-03-10 18:20:00,
2013-03-10 12:30:00,44.0,26.6,30.19,SW,225,8.0,10.0,50,0.00,,---,0.00,VWS V14.01,2013-03-10 18:30:00,
2013-03-10 12:40:00,43.0,25.2,30.19,South,180,0.0,10.0,49,0.00,,---,0.00,VWS V14.01,2013-03-10 18:40:00,
2013-03-10 12:49:00,40.0,25.6,30.21,ENE,67,7.0,12.0,56,0.00,,---,0.00,VWS V14.01,2013-03-10 18:49:00,
2013-03-10 12:50:00,45.0,23.3,30.18,West,270,6.0,6.0,42,0.00,,---,0.00,VWS V14.01,2013-03-10 18:50:00,
2013-03-10 13:00:00,45.0,22.1,30.18,WSW,247,7.0,12.0,40,0.00,,---,0.00,VWS V14.01,2013-03-10 19:00:00,
2013-03-10 13:30:00,46.0,21.2,30.16,WSW,247,8.0,17.0,37,0.00,,---,0.00,VWS V14.01,2013-03-10 19:30:00,
2013-03-10 13:50:00,46.0,19.2,30.16,WNW,292,8.0,13.0,34,0.00,,---,0.00,VWS V14.01,2013-03-10 19:50:00,
2013-03-10 14:09:00,44.0,21.2,30.17,West,270,4.0,14.0,40,0.00,,---,0.00,VWS V14.01,2013-03-10 20:09:00,
2013-03-10 14:10:00,46.0,18.5,30.16,West,270,8.0,18.0,33,0.00,,---,0.00,VWS V14.01,2013-03-10 20:10:00,
2013-03-10 14:19:00,45.0,20.3,30.18,West,270,6.0,16.0,37,0.00,,---,0.00,VWS V14.01,2013-03-10 20:19:00,
2013-03-10 14:39:00,46.0,19.9,30.16,NNW,337,8.0,18.0,35,0.00,,---,0.00,VWS V14.01,2013-03-10 20:39:00,
2013-03-10 14:50:00,49.0,18.9,30.15,West,270,5.0,19.0,30,0.00,,---,0.00,VWS V14.01,2013-03-10 20:50:00,
2013-03-10 14:59:00,46.0,19.2,30.16,West,270,6.0,19.0,34,0.00,,---,0.00,VWS V14.01,2013-03-10 20:59:00,
2013-03-10 15:10:00,48.0,18.1,30.16,West,270,15.0,21.0,30,0.00,,---,0.00,VWS V14.01,2013-03-10 21:10:00,
2013-03-10 15:19:00,47.0,19.4,30.16,West,270,9.0,20.0,33,0.00,,---,0.00,VWS V14.01,2013-03-10 21:19:00,
2013-03-10 15:29:00,48.0,19.6,30.16,West,270,9.0,20.0,32,0.00,,---,0.00,VWS V14.01,2013-03-10 21:29:00,
2013-03-10 15:39:00,48.0,18.8,30.16,NNW,337,7.0,23.0,31,0.00,,---,0.00,VWS V14.01,2013-03-10 21:39:00,
2013-03-10 15:40:00,50.0,17.4,30.15,West,270,17.0,17.0,27,0.00,,---,0.00,VWS V14.01,2013-03-10 21:40:00,
2013-03-10 16:10:00,49.0,15.6,30.13,West,270,4.0,19.0,26,0.00,,---,0.00,VWS V14.01,2013-03-10 22:10:00,
2013-03-10 16:19:00,49.0,17.3,30.16,West,270,7.0,19.0,28,0.00,,---,0.00,VWS V14.01,2013-03-10 22:19:00,
2013-03-10 16:29:00,50.0,17.4,30.15,West,270,8.0,24.0,27,0.00,,---,0.00,VWS V14.01,2013-03-10 22:29:00,
2013-03-10 16:49:00,49.0,17.3,30.15,WNW,292,14.0,24.0,28,0.00,,---,0.00,VWS V14.01,2013-03-10 22:49:00,
2013-03-10 16:59:00,49.0,16.5,30.14,West,270,10.0,22.0,27,0.00,,---,0.00,VWS V14.01,2013-03-10 22:59:00,
2013-03-10 17:19:00,49.0,16.5,30.14,NW,315,0.0,16.0,27,0.00,,---,0.00,VWS V14.01,2013-03-10 23:19:00,
2013-03-10 17:29:00,49.0,16.5,30.14,NW,315,13.0,15.0,27,0.00,,---,0.00,VWS V14.01,2013-03-10 23:29:00,
2013-03-10 17:39:00,49.0,17.3,30.14,West,270,11.0,21.0,28,0.00,,---,0.00,VWS V14.01,2013-03-10 23:39:00,
2013-03-10 17:49:00,49.0,17.3,30.15,WNW,292,12.0,20.0,28,0.00,,---,0.00,VWS V14.01,2013-03-10 23:49:00,
2013-03-10 17:59:00,49.0,18.9,30.14,WNW,292,12.0,16.0,30,0.00,,---,0.00,VWS V14.01,2013-03-10 23:59:00,
2013-03-10 18:09:00,49.0,18.9,30.15,WNW,292,0.0,17.0,30,0.00,,---,0.00,VWS V14.01,2013-03-11 00:09:00,
2013-03-10 18:29:00,48.0,18.1,30.15,West,270,10.0,15.0,30,0.00,,---,0.00,VWS V14.01,2013-03-11 00:29:00,
2013-03-10 18:39:00,48.0,17.3,30.16,West,270,14.0,23.0,29,0.00,,---,0.00,VWS V14.01,2013-03-11 00:39:00,
2013-03-10 18:49:00,47.0,16.4,30.17,West,270,8.0,14.0,29,0.00,,---,0.00,VWS V14.01,2013-03-11 00:49:00,
2013-03-10 18:59:00,47.0,17.2,30.18,West,270,3.0,13.0,30,0.00,,---,0.00,VWS V14.01,2013-03-11 00:59:00,
2013-03-10 19:09:00,46.0,16.3,30.18,West,270,9.0,14.0,30,0.00,,---,0.00,VWS V14.01,2013-03-11 01:09:00,
2013-03-10 19:19:00,45.0,15.4,30.20,West,270,7.0,13.0,30,0.00,,---,0.00,VWS V14.01,2013-03-11 01:19:00,
2013-03-10 19:20:00,43.0,12.9,30.24,West,270,8.0,15.0,29,0.00,,---,0.00,VWS V14.01,2013-03-11 01:20:00,
2013-03-10 19:29:00,45.0,15.4,30.21,West,270,4.0,8.0,30,0.00,,---,0.00,VWS V14.01,2013-03-11 01:29:00,
2013-03-10 19:39:00,44.0,14.6,30.22,West,270,3.0,7.0,30,0.00,,---,0.00,VWS V14.01,2013-03-11 01:39:00,
2013-03-10 19:49:00,43.0,12.1,30.22,West,270,6.0,8.0,28,0.00,,---,0.00,VWS V14.01,2013-03-11 01:49:00,
2013-03-10 19:59:00,43.0,12.9,30.22,West,270,10.0,13.0,29,0.00,,---,0.00,VWS V14.01,2013-03-11 01:59:00,
2013-03-10 20:00:00,40.0,12.5,30.24,West,270,9.0,11.0,32,0.00,,---,0.00,VWS V14.01,2013-03-11 02:00:00,
2013-03-10 20:09:00,43.0,12.9,30.24,West,270,8.0,15.0,29,0.00,,---,0.00,VWS V14.01,2013-03-11 02:09:00,
2013-03-10 20:20:00,39.0,14.3,30.26,West,270,8.0,10.0,36,0.00,,---,0.00,VWS V14.01,2013-03-11 02:20:00,
2013-03-10 20:29:00,42.0,12.8,30.24,West,270,6.0,14.0,30,0.00,,---,0.00,VWS V14.01,2013-03-11 02:29:00,
2013-03-10 20:30:00,38.0,14.1,30.27,West,270,5.0,10.0,37,0.00,,---,0.00,VWS V14.01,2013-03-11 02:30:00,
2013-03-10 20:39:00,41.0,12.7,30.24,West,270,8.0,14.0,31,0.00,,---,0.00,VWS V14.01,2013-03-11 02:39:00,
2013-03-10 20:40:00,38.0,14.7,30.27,WSW,247,5.0,7.0,38,0.00,,---,0.00,VWS V14.01,2013-03-11 02:40:00,
2013-03-10 20:49:00,41.0,12.7,30.24,WNW,292,10.0,12.0,31,0.00,,---,0.00,VWS V14.01,2013-03-11 02:49:00,
2013-03-10 21:00:00,37.0,14.4,30.28,West,270,5.0,10.0,39,0.00,,---,0.00,VWS V14.01,2013-03-11 03:00:00,
2013-03-10 21:09:00,40.0,13.9,30.26,WSW,247,8.0,12.0,34,0.00,,---,0.00,VWS V14.01,2013-03-11 03:09:00,
2013-03-10 21:10:00,37.0,15.5,30.28,West,270,4.0,9.0,41,0.00,,---,0.00,VWS V14.01,2013-03-11 03:10:00,
2013-03-10 21:20:00,37.0,15.5,30.28,West,270,10.0,10.0,41,0.00,,---,0.00,VWS V14.01,2013-03-11 03:20:00,
2013-03-10 21:30:00,39.0,14.9,30.28,West,270,11.0,14.0,37,0.00,,---,0.00,VWS V14.01,2013-03-11 03:30:00,
2013-03-10 21:40:00,39.0,15.6,30.28,West,270,10.0,13.0,38,0.00,,---,0.00,VWS V14.01,2013-03-11 03:40:00,
2013-03-10 21:49:00,37.0,14.4,30.28,West,270,5.0,6.0,39,0.00,,---,0.00,VWS V14.01,2013-03-11 03:49:00,
2013-03-10 21:50:00,39.0,15.6,30.28,West,270,6.0,12.0,38,0.00,,---,0.00,VWS V14.01,2013-03-11 03:50:00,
2013-03-10 22:00:00,38.0,15.8,30.29,West,270,4.0,11.0,40,0.00,,---,0.00,VWS V14.01,2013-03-11 04:00:00,
2013-03-10 22:10:00,37.0,15.5,30.29,West,270,5.0,10.0,41,0.00,,---,0.00,VWS V14.01,2013-03-11 04:10:00,
2013-03-10 22:20:00,37.0,16.1,30.29,West,270,0.0,8.0,42,0.00,,---,0.00,VWS V14.01,2013-03-11 04:20:00,
2013-03-10 22:30:00,36.0,15.7,30.30,West,270,0.0,0.0,43,0.00,,---,0.00,VWS V14.01,2013-03-11 04:30:00,
2013-03-10 22:40:00,34.0,15.4,30.30,NW,315,0.0,0.0,46,0.00,,---,0.00,VWS V14.01,2013-03-11 04:40:00,
2013-03-10 22:50:00,34.0,15.9,30.31,North,360,0.0,0.0,47,0.00,,---,0.00,VWS V14.01,2013-03-11 04:50:00,
2013-03-10 23:00:00,34.0,15.9,30.31,NNW,337,0.0,0.0,47,0.00,,---,0.00,VWS V14.01,2013-03-11 05:00:00,
2013-03-10 23:10:00,33.0,15.5,30.31,WSW,247,0.0,0.0,48,0.00,,---,0.00,VWS V14.01,2013-03-11 05:10:00,
2013-03-10 23:20:00,33.0,15.9,30.32,WSW,247,0.0,0.0,49,0.00,,---,0.00,VWS V14.01,2013-03-11 05:20:00,
2013-03-10 23:30:00,33.0,15.9,30.32,West,270,0.0,0.0,49,0.00,,---,0.00,VWS V14.01,2013-03-11 05:30:00,
2013-03-10 23:40:00,34.0,16.4,30.33,West,270,0.0,0.0,48,0.00,,---,0.00,VWS V14.01,2013-03-11 05:40:00,
2013-03-10 23:50:00,32.0,16.4,30.33,West,270,0.0,0.0,52,0.00,,---,0.00,VWS V14.01,2013-03-11 05:50:00,